Flag for Israel Weather past 2 weeks in Jerusalem, Israel

Now
72 °F

Passing clouds.


Feels Like: 75 °F
Forecast: 60 / 76 °F
Wind: 12 mph from Northwest

Location: Ben Gurion International Airport

Current Time: May 5, 2015 at 6:23:25 PM

Latest Report: May 5, 2015 at 5:50 PM


Visibility: N/A

Pressure: 29.83 "Hg

Humidity: 65%

Dew point: 59 °F

Location of JerusalemLocation

Historic Weather in Jerusalem — Graph

°F

Jerusalem temperature yesterday

Maximum temperature yesterday: 72 °F (at 10:20 AM)
Minimum temperature yesterday: 63 °F (at 5:50 AM)
Average temperature yesterday: 67 °F

Past Weeks' High & Low Weather Summary

 TemperatureHumidityPressure
High91 °F (Apr 29, 4:50 PM)88% (Apr 22, 1:20 AM)30.24 "Hg (Apr 22, 1:20 AM)
Low50 °F (Apr 25, 4:20 AM)15% (Apr 20, 5:20 PM)29.83 "Hg (Apr 20, 9:50 PM)
Average68 °F59%29.97 "Hg
* Reported Apr 20 5:20 PM — May 5 5:20 PM, Jerusalem, Weather by CustomWeather, © 2015

Note: Actual official high and low records may vary slightly from our data, if they occured in-between our weather recording intervals... More about our weather records

Advertising

Jerusalem weather history for previous 24 hours

 ConditionsComfort  
Time TempWeatherWind HumidityBarometerVisibility
5:20 PM
Tue, May 5
72 °FPassing clouds.13 mph65%29.83 "HgN/A
4:50 PM72 °FPassing clouds.14 mph65%29.83 "HgN/A
4:20 PM72 °FPassing clouds.14 mph65%29.83 "HgN/A
3:50 PM73 °FPassing clouds.14 mph61%29.83 "HgN/A
3:20 PM73 °FPassing clouds.12 mph61%29.83 "HgN/A
2:50 PM73 °FPassing clouds.14 mph61%29.86 "HgN/A
2:20 PM72 °FPassing clouds.13 mph65%29.86 "HgN/A
1:50 PM73 °FPassing clouds.15 mph61%29.86 "HgN/A
1:20 PM73 °FPassing clouds.14 mph61%29.86 "HgN/A
12:50 PM73 °FPassing clouds.13 mph61%29.86 "HgN/A
12:20 PM73 °FPassing clouds.10 mph61%29.86 "HgN/A
11:50 AM73 °FScattered clouds.8 mph61%29.89 "HgN/A
11:20 AM73 °FScattered clouds.10 mph61%29.89 "HgN/A
10:50 AM73 °FScattered clouds.6 mph57%29.89 "HgN/A
10:20 AM73 °FPassing clouds.5 mph53%29.89 "HgN/A
9:50 AM72 °FScattered clouds.3 mph57%29.89 "HgN/A
9:20 AM70 °FScattered clouds.2 mph64%29.89 "HgN/A
8:50 AM68 °FScattered clouds.1 mph69%29.89 "HgN/A
8:20 AM68 °FPassing clouds.2 mph69%29.89 "HgN/A
7:50 AM64 °FPassing clouds.5 mph73%29.89 "HgN/A
7:20 AM63 °FPassing clouds.5 mph73%29.89 "HgN/A
6:20 AM61 °FPassing clouds.5 mph77%29.89 "HgN/A
5:50 AM61 °FPassing clouds.2 mph77%29.86 "HgN/A
5:20 AM61 °FPassing clouds.1 mph77%29.86 "HgN/A
4:50 AM61 °FPassing clouds.2 mph77%29.86 "HgN/A
4:20 AM61 °FPassing clouds.2 mph77%29.86 "HgN/A
3:50 AM63 °FPassing clouds.3 mph73%29.86 "HgN/A
3:20 AM63 °FPassing clouds.3 mph73%29.86 "HgN/A
2:50 AM63 °FPassing clouds.3 mph73%29.89 "HgN/A
2:20 AM63 °FPassing clouds.3 mph73%29.89 "HgN/A
1:50 AM63 °FPassing clouds.5 mph73%29.89 "HgN/A
1:20 AM63 °FPassing clouds.5 mph77%29.89 "HgN/A
12:50 AM63 °FPassing clouds.5 mph73%29.89 "HgN/A
12:20 AM63 °FPassing clouds.3 mph73%29.89 "HgN/A
11:50 PM
Mon, May 4
64 °FPassing clouds.3 mph73%29.92 "HgN/A
11:20 PM64 °FPassing clouds.5 mph68%29.92 "HgN/A
10:50 PM64 °FPassing clouds.2 mph73%29.92 "HgN/A
10:20 PM64 °FPassing clouds.3 mph73%29.92 "HgN/A
9:50 PM64 °FClear.3 mph73%29.92 "Hg10 mi
9:20 PM64 °FClear.5 mph73%29.92 "Hg10 mi
8:50 PM66 °FClear.6 mph68%29.92 "Hg10 mi
8:20 PM66 °FSunny.7 mph68%29.92 "Hg10 mi
7:50 PM66 °FSunny.9 mph68%29.89 "Hg10 mi
7:20 PM66 °FPassing clouds.9 mph68%29.89 "HgN/A
6:50 PM68 °FPassing clouds.10 mph64%29.89 "HgN/A
6:20 PM70 °FPassing clouds.9 mph60%29.89 "HgN/A
Weather by CustomWeather, © 2015

See weather overviewHow to use our weather pages